Marshfield, WI

4:57 PM CST on December 07, 2019 (GMT -0600)
Marshfield Municipal

Weather History for KMFI - November, 2019

Change the Weather History Date:

Friday, November 22, 2019

  Actual Average Record
Temperature  
Mean Temperature 26 °F -  
Max Temperature 30 °F 37 °F 62 °F (2012)
Min Temperature 21 °F 20 °F -27 °F (2016)
Degree Days  
Heating Degree Days 40    
Moisture  
Dew Point 16 °F    
Average Humidity 73    
Maximum Humidity 82    
Minimum Humidity 59    
Precipitation  
Precipitation 0.00 in - - ()
Sea Level Pressure  
Sea Level Pressure 30.14 in    
Wind  
Wind Speed 9 mph ()    
Max Wind Speed 16 mph    
Max Gust Speed 23 mph    
Visibility 10.0 miles    
Events      
Averages and records for this station are not official NWS values.
T = Trace of Precipitation, MM = Missing Value Source: Averaged Metar Reports

Daily Weather History Graph

Daily Weather History Graph

Search for Another Location

Airport or City:

Astronomy

Nov. 22, 2019 Rise Set
Actual Time 7:06 AM CST 4:26 PM CST
Civil Twilight 6:34 AM CST 4:59 PM CST
Nautical Twilight 5:58 AM CST 5:34 PM CST
Astronomical Twilight 5:23 AM CST 6:09 PM CST
Moon 1:57 AM CST (11/22) 2:40 PM CST (11/22)
Length of Visible Light 10h 24m
Length of Day
9h 20m
Waning Crescent, 19% of the Moon is Illuminated
Nov 22
Waning Crescent
Nov 26
New
Dec 4
First Quarter
Dec 11
Full
Dec 18
Last Quarter

Hourly Weather History & Observations

Time (CST) Temp. Windchill Dew Point Humidity Pressure Visibility Wind Dir Wind Speed Gust Speed Precip Events Conditions
12:54 AM 23.0 °F 9.6 °F 16.0 °F 74% 30.14 in 10.0 mi NW 16.1 mph 23.0 mph N/A   Overcast
1:54 AM 23.0 °F 10.6 °F 16.0 °F 74% 30.15 in 10.0 mi NNW 13.8 mph 18.4 mph N/A   Overcast
2:54 AM 23.0 °F 9.6 °F 16.0 °F 74% 30.17 in 10.0 mi NNW 16.1 mph - N/A   Overcast
3:54 AM 23.0 °F 10.1 °F 16.0 °F 74% 30.17 in 10.0 mi NNW 15.0 mph - N/A   Overcast
4:54 AM 21.9 °F 10.4 °F 16.0 °F 78% 30.17 in 10.0 mi NW 11.5 mph - N/A   Overcast
6:54 AM 21.9 °F 10.4 °F 15.1 °F 75% 30.21 in 10.0 mi WNW 11.5 mph - N/A   Overcast
7:54 AM 21.9 °F 13.4 °F 15.1 °F 75% 30.23 in 10.0 mi NW 6.9 mph - N/A   Overcast
9:54 AM 23.0 °F 14.7 °F 16.0 °F 74% 30.24 in 10.0 mi West 6.9 mph - N/A   Overcast
10:34 AM 23.0 °F 15.8 °F 15.1 °F 72% 30.16 in 10.0 mi WNW 5.8 mph - N/A   Scattered Clouds
10:54 AM 24.1 °F 14.4 °F 16.0 °F 71% 30.22 in 10.0 mi West 9.2 mph - N/A   Mostly Cloudy
11:15 AM 24.1 °F 14.4 °F 16.0 °F 71% 30.15 in 10.0 mi West 9.2 mph - N/A   Scattered Clouds
11:54 AM 26.1 °F 17.6 °F 17.1 °F 69% 30.19 in 10.0 mi WNW 8.1 mph - N/A   Partly Cloudy
12:54 PM 28.0 °F 20.0 °F 17.1 °F 63% 30.16 in 10.0 mi West 8.1 mph - N/A   Clear
1:54 PM 30.0 °F 21.1 °F 17.1 °F 59% 30.15 in 10.0 mi WSW 10.4 mph - N/A   Clear
2:54 PM 30.0 °F 22.4 °F 17.1 °F 59% 30.14 in 10.0 mi West 8.1 mph - N/A   Clear
3:54 PM 28.9 °F 22.8 °F 18.0 °F 64% 30.13 in 10.0 mi West 5.8 mph - N/A   Clear
4:54 PM 26.1 °F 19.4 °F 18.0 °F 71% 30.12 in 10.0 mi West 5.8 mph - N/A   Clear
5:54 PM 24.1 °F 17.0 °F 17.1 °F 75% 30.11 in 10.0 mi WSW 5.8 mph - N/A   Clear
6:54 PM 24.1 °F 17.0 °F 17.1 °F 75% 30.09 in 10.0 mi West 5.8 mph - N/A   Clear
7:54 PM 21.9 °F 15.7 °F 16.0 °F 78% 30.06 in 10.0 mi SW 4.6 mph - N/A   Clear
8:54 PM 21.9 °F 15.7 °F 17.1 °F 82% 30.03 in 10.0 mi SSW 4.6 mph - N/A   Clear
9:54 PM 21.9 °F 17.2 °F 17.1 °F 82% 30.01 in 10.0 mi WSW 3.5 mph - N/A   Clear
11:54 PM 21.9 °F 13.4 °F 17.1 °F 82% 29.98 in 10.0 mi SW 6.9 mph - N/A   Clear